Temperature
24 25 26 26 26 26 25 23 22 22 22 22 22 21 22 22 22 22 22 22 22 22 21 21 21 21 21 20 20 20 19 19 19 18 18 17 17 17 17 17 17 17 16 16
24 25 25 26 26 26 25 25 24 23 22 22 22 22 22 22 22 22 22 22 22 22 21 21 21 21 21 20 20 19 19 19 18 18 17 17 17 17 17 16 16 16 16 16
21 23 24 24 24 25 24 24 24 23 22 21 21 21 21 21 22 22 22 22 22 22 22 22 21 21 21 20 20 19 19 19 18 18 17 17 17 17 16 16 16 16 16 16
20 22 23 22 23 25 24 23 22 22 22 21 21 21 22 22 22 22 22 22 22 22 22 22 21 21 20 20 19 19 18 18 18 17 17 17 17 16 16 16 16 16 16 15
18 20 21 23 24 24 23 21 22 21 21 21 22 21 21 21 22 22 22 22 22 22 22 22 21 20 20 19 19 19 18 18 17 17 17 17 16 16 16 16 15 15 15 15
18 21 21 21 23 24 23 20 21 21 21 21 21 19 19 21 21 21 21 21 21 21 21 21 20 20 19 19 19 18 18 17 17 17 16 16 16 16 16 15 15 15 15 15
18 19 20 21 23 23 21 20 21 21 21 21 20 20 21 21 21 21 21 21 21 21 21 20 20 19 19 19 18 18 18 17 17 16 16 16 16 16 15 15 15 14 14 14
17 18 19 21 21 20 19 21 21 21 21 21 21 21 21 21 21 21 20 20 20 20 20 19 19 19 19 18 18 18 17 17 16 16 16 16 15 15 15 15 14 14 14 14
16 17 18 20 20 21 21 21 21 21 21 22 21 21 21 20 21 20 20 20 20 20 19 19 18 18 18 18 18 17 17 17 16 16 16 15 15 15 14 14 14 14 14 14
16 17 18 20 20 21 21 20 21 21 21 21 21 21 20 20 20 20 20 19 19 19 19 18 18 18 18 18 17 17 16 16 16 16 16 15 15 15 14 14 14 14 14 13
15 16 18 19 20 20 20 20 20 20 21 21 21 20 20 19 19 19 19 19 18 18 18 18 18 18 17 17 17 16 16 16 16 15 15 15 15 14 14 14 14 14 14 14
15 16 16 18 19 19 19 19 20 20 20 20 20 20 19 19 19 19 19 18 18 18 18 17 17 17 17 17 16 16 16 16 15 15 15 15 14 14 14 14 14 13 13 13
18 18 18 18 18 19 19 19 19 19 19 19 19 19 19 18 18 18 18 18 18 17 17 17 17 17 16 16 16 16 15 15 15 15 15 14 14 14 14 14 13 13 13 13
18 18 17 17 17 18 18 18 18 18 19 18 18 18 18 17 17 17 17 17 17 17 16 16 16 16 16 16 16 15 15 15 15 15 14 14 14 14 14 14 13 13 13 13
17 18 17 17 17 17 17 17 17 17 17 17 17 17 17 17 17 16 16 16 16 16 16 15 15 15 15 15 15 15 15 15 14 14 14 14 14 14 14 13 13 13 13 13
17 17 16 16 17 17 17 17 16 16 16 16 16 16 16 16 16 16 15 15 15 15 15 15 15 15 14 14 14 14 14 14 14 14 14 14 14 14 13 13 13 13 13 13
16 15 15 15 16 16 16 16 16 16 16 16 16 15 15 15 15 15 15 15 15 15 14 14 14 14 14 14 14 14 14 14 14 14 14 14 13 13 13 13 13 13 12 12
16 15 15 15 15 16 16 16 16 15 15 15 15 15 15 15 15 15 14 14 14 14 14 14 14 13 13 13 14 14 13 13 13 14 14 13 13 13 13 13 13 12 12 12
15 15 15 15 15 15 16 16 15 15 15 15 15 15 15 15 14 14 14 14 14 13 13 13 13 13 13 13 13 13 13 13 13 13 13 13 13 13 13 13 12 12 12 12
15 15 15 15 15 15 15 15 15 15 15 15 15 15 14 14 14 14 14 14 14 14 13 13 13 13 13 13 13 13 13 13 13 13 13 13 13 13 12 12 12 12 12 12
15 15 15 15 15 15 15 15 15 15 15 15 14 14 14 14 14 13 13 13 13 13 13 13 13 13 13 13 13 13 13 13 13 13 13 13 13 12 12 12 12 12 12 11
14 14 14 14 14 14 14 14 14 14 14 14 14 14 14 13 13 13 13 13 13 13 13 13 13 13 12 12 12 12 12 12 12 12 12 12 12 12 12 12 12 12 11 11
14 14 14 14 14 14 14 14 14 14 14 14 14 14 14 13 13 13 13 13 13 13 13 12 12 12 12 12 12 12 12 12 12 12 12 12 12 12 12 12 12 11 11 11
14 14 14 14 14 14 14 14 14 14 14 14 13 13 13 13 13 13 13 13 12 12 12 12 12 12 12 12 12 12 12 12 12 12 12 12 12 12 11 11 11 11 11 11
14 14 14 14 14 13 13 13 13 13 13 13 13 13 13 13 13 13 12 12 12 12 12 12 12 12 12 12 11 11 11 11 11 11 11 11 11 11 11 11 11 11 11 11
13 13 14 14 13 13 13 13 13 13 13 12 12 12 12 12 12 12 12 12 12 12 11 11 11 11 11 11 11 11 11 11 11 11 11 11 11 11 11 11 11 10 10 10
13 13 13 13 13 13 13 13 13 13 12 12 12 12 12 12 12 12 12 12 11 11 11 11 11 11 11 11 11 11 11 11 11 10 10 10 10 10 10 10 10 10 10 10
Wind_Speed
3 3 2 0 3 1 3 7 7 7 7 8 9 9 10 9 8 9 9 9 9 9 8 7 8 8 8 6 6 6 6 5 4 3 3 3 2 2 2 3 3 2 3 2
3 2 2 2 2 0 2 4 6 6 4 5 4 6 8 9 9 9 8 7 8 9 9 9 9 9 8 7 7 6 6 5 4 4 3 3 2 3 3 3 2 3 2 2
2 3 4 3 3 2 3 4 7 5 5 5 6 6 8 9 9 8 7 6 8 9 9 10 9 10 9 8 7 6 5 4 4 4 4 3 3 3 2 2 2 3 2 3
1 3 2 6 2 5 6 4 3 4 5 8 8 7 5 6 8 7 6 7 7 7 7 7 7 8 8 8 7 6 5 5 4 4 4 3 3 3 2 2 3 2 3 3
3 3 3 4 3 1 6 3 2 4 4 6 7 5 3 1 5 6 6 6 6 6 6 6 7 8 9 8 7 6 5 5 5 5 4 3 3 2 2 2 2 2 3 3
4 4 4 5 4 0 7 2 3 3 5 5 6 4 4 3 4 5 5 4 4 4 5 6 6 7 8 7 7 7 7 6 5 5 5 4 3 2 2 2 2 3 3 3
4 3 4 5 5 3 3 5 2 3 5 5 4 5 5 4 4 5 6 5 5 5 5 5 6 8 7 6 7 7 7 6 5 5 5 5 4 3 2 2 3 3 3 2
4 3 5 5 3 2 5 3 1 3 3 4 4 4 4 4 4 5 4 4 5 5 4 4 6 7 7 6 6 5 6 6 6 5 5 4 4 3 2 3 3 2 3 2
5 5 4 2 2 1 2 1 1 3 4 5 5 4 4 4 4 4 5 4 4 5 4 2 4 6 6 5 4 5 5 5 5 5 4 4 4 4 3 3 3 3 3 3
2 1 1 3 4 4 3 1 2 1 3 5 5 5 5 5 5 5 4 3 4 4 4 3 3 3 5 4 4 5 5 5 5 5 4 3 3 4 4 4 3 3 4 4
0 2 3 4 2 2 3 4 3 2 2 4 6 5 5 6 6 5 4 4 4 4 5 4 4 4 4 4 5 5 5 5 5 5 5 4 2 2 3 4 5 5 5 5
4 5 2 3 3 1 2 2 2 2 1 2 5 6 5 6 5 5 4 4 4 4 4 5 5 4 3 4 5 5 5 5 5 5 5 4 4 1 2 1 2 5 6 6
4 3 2 3 3 2 1 1 2 1 2 2 2 4 6 5 4 4 4 4 5 4 4 4 4 3 3 4 4 5 5 5 5 5 5 5 5 5 2 1 1 0 3 5
1 2 1 2 2 2 1 1 1 0 1 3 3 3 4 4 4 4 4 4 5 5 4 3 3 3 3 3 4 4 4 5 5 5 6 6 6 5 5 4 3 2 2 4
1 1 2 2 1 1 2 2 2 1 2 2 3 3 3 4 4 3 3 3 4 4 3 3 3 3 2 3 4 4 3 3 4 4 5 5 5 5 5 5 4 3 2 1
1 2 2 1 1 1 1 1 1 1 2 3 3 3 3 4 3 3 3 4 4 4 4 3 3 3 3 3 3 3 3 5 5 4 4 5 5 5 5 5 5 5 5 4
1 2 3 4 2 2 1 1 2 3 3 4 4 4 4 3 3 3 3 3 3 4 4 3 3 3 3 4 4 3 3 3 4 4 4 5 5 6 6 6 6 5 5 6
4 5 5 5 4 3 2 1 2 3 3 3 4 4 4 4 4 3 3 2 2 1 2 3 3 3 3 3 3 3 3 2 3 3 4 4 5 5 5 5 6 6 4 4
3 3 4 5 4 3 2 1 2 3 3 4 4 4 4 4 4 4 3 3 4 3 4 3 4 4 3 3 3 2 3 2 2 2 3 4 4 4 5 5 5 5 5 5
4 3 3 4 3 1 1 2 2 3 3 4 4 4 4 3 3 3 3 3 4 4 4 3 3 3 3 4 3 2 3 3 3 3 3 3 4 4 4 5 5 5 6 6
2 2 2 1 1 0 1 3 3 3 3 4 5 5 5 4 4 4 3 2 3 3 2 3 2 2 2 2 3 2 2 3 3 3 3 4 4 4 4 4 5 5 5 5
1 1 1 0 0 0 1 2 3 3 3 3 3 4 4 4 3 3 3 4 3 3 2 2 2 3 3 2 2 2 2 2 3 3 3 3 4 4 4 4 4 4 5 5
1 1 1 2 1 1 2 2 2 3 3 3 3 4 4 4 4 4 3 2 2 3 2 2 3 3 3 2 2 2 2 2 2 3 3 3 4 4 4 5 4 4 4 4
2 2 2 1 2 4 3 2 2 2 2 2 2 3 3 3 1 1 2 3 3 2 1 3 4 4 3 1 1 1 2 2 2 2 2 3 3 4 4 4 4 4 4 5
3 3 3 4 3 2 2 2 3 3 3 2 2 2 2 2 2 1 2 2 2 2 1 2 3 3 2 1 1 1 1 2 2 2 2 2 3 3 3 3 3 4 4 4
2 1 1 2 1 1 2 2 2 2 2 2 2 2 2 2 2 2 2 2 2 2 1 1 1 1 1 1 1 2 1 1 2 2 2 2 3 3 2 3 4 3 3 4
4 3 3 3 3 2 3 3 2 2 2 2 2 1 2 2 2 2 3 2 2 1 1 0 0 1 1 1 1 2 1 2 2 2 2 2 3 3 3 3 3 3 3 3
Wind_Direction
198 210 155 208 280 236 149 169 166 187 181 206 195 172 161 157 157 146 154 163 168 169 167 166 163 162 162 161 158 158 155 157 165 166 157 141 137 134 128 126 127 123 109 95
3 12 36 8 328 100 138 142 142 145 186 223 182 140 149 158 161 157 157 159 166 165 164 171 173 172 166 164 163 158 157 164 164 153 142 139 145 136 123 115 104 98 101 99
284 326 44 332 271 157 121 129 147 173 203 159 135 154 173 171 165 161 160 161 163 166 174 182 182 173 169 167 158 152 153 152 155 152 149 156 153 130 136 145 131 120 112 103
133 56 196 241 273 121 110 67 96 135 151 153 162 173 175 168 157 151 153 153 162 166 178 185 175 164 158 153 151 154 156 158 156 152 156 155 147 148 155 156 151 143 129 126
121 159 257 296 323 96 114 52 28 117 129 141 136 85 42 149 143 153 161 163 161 165 168 164 160 159 150 150 152 153 168 174 173 165 158 149 152 160 166 149 142 147 146 142
121 142 208 251 294 176 99 33 325 112 124 135 114 127 235 214 155 147 139 140 141 142 134 139 152 148 147 154 159 170 176 175 170 166 161 159 163 168 172 160 152 146 143 143
145 170 244 269 297 36 109 219 267 106 126 137 155 190 196 162 148 142 146 143 133 126 130 145 146 140 149 158 175 180 170 164 167 168 165 163 159 168 160 155 137 143 147 144
137 156 243 305 15 122 191 204 172 129 142 146 145 135 124 123 132 129 140 132 132 131 128 131 139 141 153 174 179 164 159 164 171 172 174 165 159 166 159 152 151 161 153 145
166 199 244 324 110 146 135 148 214 156 168 156 142 142 140 137 137 148 142 138 138 134 132 138 146 152 161 176 162 155 160 169 173 168 170 162 164 169 163 158 167 177 169 179
81 292 327 11 35 42 42 5 284 191 171 154 150 156 155 156 162 167 154 151 142 133 141 163 165 160 168 165 155 161 171 178 174 165 163 161 164 171 174 178 184 187 184 191
66 279 10 11 13 35 28 26 27 28 135 159 152 160 167 165 171 173 166 166 162 161 173 183 181 178 180 164 154 168 179 181 177 171 166 165 160 178 193 205 199 193 197 193
223 229 187 269 307 14 28 0 345 353 16 154 158 161 164 169 170 168 175 171 167 175 186 189 182 182 186 177 168 170 178 183 182 178 175 169 163 130 10 233 212 198 194 190
211 224 213 264 302 306 276 289 316 335 162 163 174 165 158 161 164 165 172 171 179 187 190 180 171 177 185 181 172 174 184 189 187 184 182 182 184 180 188 335 22 177 208 199
168 107 19 327 304 333 335 323 359 16 138 137 150 148 152 154 158 169 188 190 180 174 171 167 173 199 200 178 165 170 180 189 186 187 188 190 193 193 189 190 205 239 247 210
343 138 222 247 254 336 7 36 33 40 118 108 130 138 144 147 156 177 174 153 147 150 160 165 179 218 206 173 169 176 182 185 188 188 194 200 199 196 197 200 199 195 185 194
311 352 343 321 343 323 358 31 3 254 175 145 145 156 157 151 151 148 141 144 157 172 182 179 198 215 189 170 173 181 193 193 191 196 197 200 201 199 198 196 193 188 189 188
217 273 280 283 278 279 253 205 214 223 189 155 164 164 147 134 132 140 152 154 164 185 192 191 211 210 189 183 185 188 192 204 201 201 204 205 207 205 198 190 190 195 199 188
228 233 238 252 253 243 242 249 238 213 191 178 164 158 158 163 170 168 160 138 132 158 216 212 204 193 195 201 195 185 183 200 204 209 212 210 207 198 187 185 187 188 185 179
242 242 258 258 247 220 206 210 232 212 191 172 164 169 172 177 172 164 155 150 164 199 234 226 196 193 214 221 196 185 190 202 208 209 203 205 202 195 185 182 183 182 176 172
256 253 258 255 238 191 166 193 210 195 182 166 156 151 157 172 172 168 163 185 213 221 221 203 192 207 222 218 193 195 205 206 204 203 194 193 191 191 187 186 182 176 174 177
292 260 230 232 243 278 154 165 162 165 166 152 153 166 175 184 182 172 169 202 244 222 200 189 192 207 220 219 204 208 208 205 200 206 203 193 189 188 184 184 183 179 181 185
326 224 203 109 109 60 107 130 135 140 137 142 148 161 161 169 179 186 199 207 212 197 190 200 201 208 213 205 201 202 203 206 205 203 199 191 187 185 183 187 188 188 188 188
27 101 97 100 128 134 101 98 115 126 133 151 161 163 168 178 178 172 199 224 196 187 187 206 212 206 204 201 200 199 197 195 196 194 194 191 183 178 181 187 191 192 191 191
65 68 81 103 103 93 80 64 84 101 120 138 157 158 143 135 130 177 176 176 170 167 185 211 201 194 188 190 183 189 200 203 199 198 198 193 186 183 183 188 193 194 194 193
75 77 75 80 78 82 91 88 83 75 71 68 76 103 124 132 143 154 129 139 154 137 115 169 172 168 158 152 158 173 197 203 196 186 184 183 186 183 185 192 197 199 198 195
46 61 81 92 103 95 89 94 94 82 83 81 63 62 75 85 99 105 109 121 128 130 127 162 152 121 128 160 172 180 181 190 180 179 189 187 183 182 187 193 195 197 198 191
30 32 47 47 35 48 64 75 82 73 88 103 85 57 64 68 75 87 95 100 107 119 130 128 133 142 170 192 195 200 193 181 174 182 189 188 183 187 194 196 201 199 191 184
Height
1485 1481 1480 1482 1482 1481 1488 1496 1506 1506 1503 1498 1492 1492 1495 1498 1500 1502 1504 1506 1508 1510 1513 1516 1517 1519 1521 1522 1523 1524 1525 1525 1525 1526 1526 1526 1526 1526 1525 1525 1524 1524 1524 1523
1486 1479 1479 1482 1480 1480 1482 1486 1492 1495 1498 1490 1489 1491 1493 1496 1498 1500 1502 1504 1506 1508 1511 1513 1515 1516 1518 1520 1521 1522 1523 1524 1524 1524 1525 1524 1524 1524 1523 1523 1523 1523 1522 1522
1498 1486 1484 1495 1484 1481 1483 1483 1487 1495 1493 1489 1490 1492 1492 1493 1496 1498 1500 1502 1505 1506 1508 1510 1512 1514 1516 1517 1519 1520 1521 1522 1522 1523 1523 1523 1523 1523 1522 1521 1521 1521 1521 1520
1501 1496 1508 1495 1477 1476 1481 1484 1483 1485 1485 1486 1487 1489 1490 1492 1494 1496 1498 1500 1503 1504 1506 1508 1510 1512 1514 1516 1517 1518 1519 1520 1520 1520 1520 1521 1521 1521 1520 1520 1520 1519 1519 1519
1506 1508 1502 1488 1479 1478 1483 1491 1485 1484 1484 1485 1485 1488 1492 1494 1495 1496 1497 1498 1500 1502 1503 1505 1508 1510 1511 1513 1513 1514 1516 1517 1518 1518 1518 1518 1519 1519 1519 1519 1518 1517 1517 1516
1502 1506 1509 1493 1477 1475 1479 1495 1486 1483 1484 1485 1486 1495 1495 1493 1495 1496 1496 1498 1499 1500 1502 1503 1505 1508 1509 1510 1511 1512 1514 1515 1516 1516 1516 1516 1516 1517 1517 1517 1516 1516 1515 1515
1500 1504 1498 1482 1476 1476 1495 1497 1485 1484 1484 1486 1486 1489 1490 1491 1493 1494 1495 1496 1497 1499 1500 1501 1503 1505 1507 1508 1510 1511 1512 1513 1513 1514 1514 1514 1514 1514 1514 1514 1514 1514 1514 1513
1500 1505 1502 1480 1478 1483 1486 1482 1483 1483 1484 1485 1485 1487 1488 1489 1490 1492 1494 1495 1496 1497 1499 1501 1503 1504 1505 1506 1507 1508 1509 1510 1510 1511 1511 1511 1511 1512 1512 1512 1512 1512 1512 1512
1493 1495 1485 1480 1480 1481 1481 1482 1482 1481 1482 1484 1485 1486 1487 1488 1489 1491 1492 1494 1496 1497 1498 1500 1501 1502 1503 1504 1505 1506 1507 1507 1507 1508 1508 1509 1509 1510 1510 1510 1510 1510 1510 1510
1488 1485 1482 1481 1480 1481 1482 1482 1481 1480 1481 1482 1483 1484 1486 1487 1488 1489 1490 1492 1494 1495 1496 1497 1499 1500 1500 1501 1502 1504 1504 1504 1504 1505 1505 1506 1507 1507 1508 1507 1508 1508 1508 1508
1488 1484 1481 1480 1480 1480 1481 1480 1479 1479 1479 1480 1481 1482 1484 1484 1486 1487 1488 1490 1491 1493 1494 1495 1496 1496 1497 1498 1499 1500 1501 1501 1501 1502 1502 1503 1504 1505 1505 1505 1505 1506 1506 1506
1487 1482 1483 1482 1480 1480 1480 1479 1478 1478 1478 1478 1478 1479 1480 1481 1483 1484 1486 1486 1488 1489 1491 1491 1493 1494 1495 1496 1496 1497 1497 1498 1498 1499 1500 1500 1501 1501 1502 1502 1503 1503 1503 1503
1479 1479 1480 1479 1479 1478 1478 1477 1477 1477 1476 1476 1476 1477 1477 1478 1480 1482 1483 1484 1485 1487 1488 1488 1489 1490 1492 1493 1493 1494 1494 1494 1495 1496 1497 1497 1498 1498 1498 1499 1500 1500 1500 1501
1477 1477 1477 1477 1477 1476 1476 1475 1474 1474 1474 1474 1474 1475 1476 1476 1477 1479 1480 1481 1482 1484 1485 1485 1485 1487 1488 1490 1490 1490 1491 1491 1492 1493 1494 1494 1495 1495 1495 1496 1496 1496 1497 1498
1475 1475 1475 1475 1475 1474 1473 1473 1472 1471 1471 1471 1472 1473 1474 1474 1474 1475 1477 1478 1480 1481 1481 1482 1483 1484 1486 1486 1487 1487 1487 1488 1489 1490 1490 1491 1492 1492 1492 1493 1493 1493 1494 1494
1473 1473 1473 1472 1471 1471 1470 1470 1470 1469 1469 1469 1470 1471 1471 1472 1472 1473 1474 1475 1477 1477 1478 1479 1480 1481 1483 1483 1484 1484 1484 1485 1486 1487 1487 1488 1488 1488 1488 1489 1489 1490 1490 1491
1472 1471 1471 1470 1468 1467 1466 1466 1467 1467 1467 1466 1467 1469 1469 1470 1470 1471 1472 1474 1475 1476 1476 1477 1478 1479 1480 1481 1481 1481 1481 1482 1482 1483 1484 1484 1484 1485 1485 1485 1486 1486 1487 1488
1469 1469 1468 1467 1466 1464 1463 1463 1464 1464 1464 1465 1466 1466 1467 1467 1467 1468 1469 1470 1472 1473 1474 1474 1475 1476 1477 1478 1478 1478 1479 1479 1479 1480 1480 1481 1481 1481 1481 1482 1482 1483 1483 1485
1466 1465 1464 1463 1462 1460 1459 1459 1460 1461 1462 1463 1463 1463 1463 1465 1465 1465 1467 1468 1469 1469 1470 1471 1472 1472 1473 1474 1475 1475 1476 1476 1476 1477 1477 1478 1478 1478 1478 1479 1479 1479 1481 1482
1461 1461 1460 1459 1458 1456 1455 1456 1456 1458 1459 1460 1460 1461 1461 1462 1463 1464 1465 1465 1466 1466 1467 1468 1469 1470 1470 1471 1472 1473 1473 1473 1474 1474 1475 1475 1475 1475 1476 1477 1477 1477 1478 1479
1456 1457 1456 1455 1454 1454 1454 1455 1455 1456 1457 1458 1457 1458 1458 1459 1460 1461 1462 1463 1464 1465 1465 1466 1467 1467 1468 1469 1469 1470 1470 1471 1471 1471 1472 1472 1472 1473 1473 1474 1474 1475 1476 1477
1453 1454 1454 1454 1453 1453 1454 1454 1455 1455 1456 1456 1456 1456 1457 1458 1459 1460 1461 1461 1462 1463 1463 1463 1464 1465 1466 1466 1467 1467 1467 1468 1468 1469 1469 1469 1469 1470 1470 1471 1472 1472 1473 1474
1455 1455 1454 1453 1453 1453 1454 1454 1455 1455 1455 1456 1456 1456 1456 1457 1458 1458 1459 1460 1460 1461 1461 1461 1461 1462 1463 1463 1464 1464 1464 1465 1465 1466 1466 1467 1467 1467 1468 1469 1469 1470 1471 1472
1455 1454 1454 1454 1454 1454 1454 1454 1455 1455 1456 1456 1456 1456 1457 1457 1457 1458 1459 1459 1459 1459 1458 1458 1458 1460 1461 1461 1461 1462 1462 1463 1463 1463 1464 1464 1465 1465 1466 1467 1467 1467 1468 1469
1456 1455 1455 1455 1455 1455 1455 1455 1456 1456 1456 1456 1456 1457 1457 1457 1457 1458 1458 1458 1458 1458 1457 1457 1458 1458 1459 1459 1460 1460 1460 1461 1461 1461 1461 1462 1462 1462 1463 1464 1464 1465 1465 1465
1456 1456 1456 1456 1456 1456 1456 1456 1457 1457 1457 1457 1457 1457 1457 1457 1458 1458 1458 1458 1458 1457 1457 1457 1457 1457 1458 1458 1458 1458 1458 1458 1458 1459 1459 1460 1460 1460 1461 1461 1461 1462 1462 1462
1458 1457 1457 1457 1457 1457 1457 1457 1457 1457 1457 1457 1457 1457 1457 1458 1458 1458 1458 1458 1457 1457 1457 1457 1457 1457 1457 1457 1457 1457 1456 1457 1457 1457 1457 1458 1458 1458 1458 1459 1459 1459 1459 1459